TimeCDT,TemperatureF,Dew PointF,Humidity,Sea Level PressureIn,VisibilityMPH,Wind Direction,Wind SpeedMPH,Gust SpeedMPH,PrecipitationIn,Events,Conditions,WindDirDegrees,DateUTC
12:51 AM,54.0,23.0,30,29.97,10.0,SSE,3.5,-,N/A,,Clear,150,2011-11-05 05:51:00
1:51 AM,54.0,23.0,30,29.95,10.0,South,6.9,-,N/A,,Clear,170,2011-11-05 06:51:00
2:51 AM,51.1,23.0,33,29.94,10.0,SSE,3.5,-,N/A,,Clear,150,2011-11-05 07:51:00
4:51 AM,48.0,23.0,37,29.91,10.0,SE,5.8,-,N/A,,Clear,140,2011-11-05 09:51:00
5:51 AM,52.0,23.0,32,29.91,10.0,South,11.5,-,N/A,,Clear,170,2011-11-05 10:51:00
6:51 AM,51.8,21.2,30,29.92,10.0,SSE,10.4,-,N/A,,Clear,160,2011-11-05 11:51:00
7:51 AM,51.1,21.9,32,29.90,10.0,SSE,6.9,-,N/A,,Clear,160,2011-11-05 12:51:00
8:51 AM,51.8,23.0,33,29.91,10.0,SSE,6.9,-,N/A,,Clear,150,2011-11-05 13:51:00
9:51 AM,57.0,30.9,37,29.89,10.0,South,10.4,-,N/A,,Clear,170,2011-11-05 14:51:00
10:51 AM,61.0,37.9,42,29.88,10.0,South,12.7,-,N/A,,Clear,180,2011-11-05 15:51:00
11:51 AM,64.4,44.6,49,29.87,10.0,South,17.3,29.9,N/A,,Clear,180,2011-11-05 16:51:00
12:51 PM,70.0,46.9,44,29.83,10.0,South,18.4,25.3,N/A,,Clear,190,2011-11-05 17:51:00
1:51 PM,71.1,46.9,42,29.79,10.0,South,20.7,29.9,N/A,,Clear,170,2011-11-05 18:51:00
2:51 PM,73.9,48.0,40,29.75,10.0,South,18.4,25.3,N/A,,Clear,180,2011-11-05 19:51:00
3:51 PM,75.0,46.9,37,29.73,10.0,South,17.3,31.1,N/A,,Clear,170,2011-11-05 20:51:00
5:51 PM,73.9,48.9,41,29.74,10.0,South,16.1,23.0,N/A,,Clear,180,2011-11-05 22:51:00
6:51 PM,71.1,50.0,47,29.75,10.0,South,10.4,-,N/A,,Clear,170,2011-11-05 23:51:00
7:51 PM,69.1,51.1,53,29.77,10.0,South,9.2,-,N/A,,Clear,170,2011-11-06 00:51:00
8:51 PM,68.0,52.0,56,29.77,10.0,South,13.8,-,N/A,,Clear,170,2011-11-06 01:51:00
9:51 PM,66.9,54.0,63,29.78,10.0,South,20.7,26.5,N/A,,Clear,180,2011-11-06 02:51:00
10:51 PM,66.9,55.9,68,29.78,10.0,South,18.4,24.2,N/A,,Clear,180,2011-11-06 03:51:00
11:51 PM,66.0,55.9,70,29.78,10.0,South,17.3,24.2,N/A,,Clear,170,2011-11-06 04:51:00